This is the latest recevied weather packets stored in our database for station/object KG5WBN. If no packets are shown the sender has not sent any weather packets the latest 10 day(s).
| Time | Temp. | Humidity | Pressure | Rain* | Wind** | Luminosity | Snow |
|---|---|---|---|---|---|---|---|
| 1787673247 | 32.22° C | 58% | 1016.6 hPa | 0 mm | - | 303 W/m² | - |
| 1787672947 | 32.22° C | 57% | 1016.6 hPa | 0 mm | - | 279 W/m² | - |
| 1787672642 | 32.22° C | 57% | 1016.6 hPa | 0 mm | - | 276 W/m² | - |
| 1787672342 | 31.67° C | 57% | 1016.6 hPa | 0 mm | - | 269 W/m² | - |
| 1787672037 | 31.67° C | 57% | 1016.6 hPa | 0 mm | - | 266 W/m² | - |
| 1787671732 | 31.67° C | 58% | 1016.6 hPa | 0 mm | - | 253 W/m² | - |
| 1787671431 | 31.67° C | 56% | 1016.9 hPa | 0 mm | - | 246 W/m² | - |
| 1787671126 | 31.11° C | 57% | 1016.6 hPa | 0 mm | - | 233 W/m² | - |
| 1787670823 | 31.67° C | 57% | 1016.6 hPa | 0 mm | - | 225 W/m² | - |
| 1787670522 | 31.11° C | 56% | 1016.6 hPa | 0 mm | - | 216 W/m² | - |
| 1787670217 | 32.22° C | 54% | 1016.6 hPa | 0 mm | - | 210 W/m² | - |
| 1787669916 | 31.67° C | 55% | 1016.6 hPa | 0 mm | - | 179 W/m² | - |
| 1787669611 | 30.56° C | 57% | 1016.6 hPa | 0 mm | - | 187 W/m² | - |
| 1787669306 | 30.56° C | 57% | 1016.6 hPa | 0 mm | - | 184 W/m² | - |
| 1787669002 | 31.11° C | 60% | 1016.6 hPa | 0 mm | - | 169 W/m² | - |
| 1787668698 | 30.56° C | 60% | 1016.6 hPa | 0 mm | - | 166 W/m² | - |
| 1787668395 | 30° C | 64% | 1016.6 hPa | 0 mm | - | 102 W/m² | - |
| 1787668094 | 30° C | 73% | 1016.6 hPa | 0 mm | - | 150 W/m² | - |
| 1787667789 | 29.44° C | 97% | 1016.6 hPa | 0 mm | - | 141 W/m² | - |
| 1787667485 | 28.89° C | 99% | 1016.6 hPa | 0 mm | - | 127 W/m² | - |
| 1787667181 | 28.89° C | 99% | 1016.6 hPa | 0 mm | - | 123 W/m² | - |
| 1787666875 | 27.78° C | 99% | 1016.6 hPa | 0 mm | - | 113 W/m² | - |
| 1787666571 | 26.67° C | 99% | 1016.3 hPa | 0 mm | - | 102 W/m² | - |
| 1787666264 | 26.67° C | 99% | 1016.6 hPa | 0 mm | - | 100 W/m² | - |
| 1787665960 | 27.22° C | 99% | 1016.6 hPa | 0 mm | - | 54 W/m² | - |
* Rain latest hour (hover to see other rain measurements)
** Current wind speed in m/s (hover to see current wind gust speed)